www.pogodaiklimat.ru

Погода и климат >> Архив погоды >> Оман >> Buraimi


ПОГОДА в Buraimi

  • Прогноз погоды в Buraimi
  • Монитор погоды в Buraimi
  • Климат города

АРХИВ ПОГОДЫ в Buraimi

Время (UTC), дата Ветер
(напр.,м/с)
 
Видим.   Явления Облачность Т
(С)
Тd
(С)
f
(%)
Тe
(С)
Тes
(С)
Комфортность P
(гПа)
Po
(гПа)
Тmin
(С)
Tmax
(С)
R
(мм)
R24
(мм)
S
(см)
00 14.11 штиль 0 н/о н/о +21.3 +17.0 76 +25 +25 комфорт 1005.0 963.8
03 14.11 В 2 н/о н/о +21.6 +15.5 68 +25 +25 комфорт 1009.0 967.7
06 14.11 С 2 н/о н/о +27.3 +11.7 38 +28 +28 жарко 1029.0 987.6 +20.4
09 14.11 СЗ 6 н/о н/о +30.6 +10.2 28 +30 +30 жарко 1024.2 983.4
12 14.11 СЗ 5 н/о н/о +30.7 +13.1 34 +32 +32 жарко 1012.3 972.1
15 14.11 СЗ 5 н/о н/о +28.7 +10.6 32 +29 +29 жарко 1002.5 962.4
18 14.11 В 4 н/о н/о +26.9 +14.5 47 +29 +29 жарко 1002.5 962.1 +31.8
21 14.11 В 3 н/о н/о +25.9 +13.5 46 +28 +28 жарко 1006.5 965.8
00 15.11 В 3 н/о н/о +25.0 +12.9 47 +27 +27 жарко 1005.2 964.5
03 15.11 ЮВ 2 н/о н/о +22.7 +12.5 53 +25 +25 комфорт 1006.6 975.7
06 15.11 Ю 3 н/о н/о +29.2 +12.3 35 +30 +30 жарко 1028.8 987.7 +22.6
09 15.11 ЮВ 3 н/о н/о +33.2 +9.9 24 +32 +32 жарко 1029.7 989.0
12 15.11 В 2 н/о н/о +33.3 +10.2 24 +33 +33 жарко 1015.3 975.2
15 15.11 В 8 н/о н/о +29.5 +13.0 36 +31 +31 жарко 998.9 959.0
18 15.11 В 4 н/о н/о +27.4 +11.1 36 +28 +28 жарко 1002.0 961.7 +34.5
21 15.11 В 2 н/о н/о +25.7 +10.8 39 +27 +27 жарко 1006.3 965.6
00 16.11 ЮВ 4 н/о н/о +24.0 +10.8 43 +25 +25 комфорт 1007.2 966.2
03 16.11 ЮВ 3 н/о н/о +22.4 +12.1 52 +25 +25 комфорт 1008.2 967.0
06 16.11 Ю 5 н/о н/о +28.4 +10.6 33 +29 +29 жарко 1028.4 987.2 +22.3
09 16.11 Ю 4 н/о н/о +31.8 +9.8 26 +31 +31 жарко 1029.4 988.5
12 16.11 З 4 н/о н/о +31.3 +10.0 27 +31 +31 жарко 1015.7 975.4
15 16.11 ЮЗ 2 н/о н/о +29.0 +9.6 30 +29 +29 жарко 1005.0 964.8
18 16.11 СЗ 3 н/о н/о +25.9 +13.0 45 +28 +28 жарко 1005.5 964.9 +32.4
21 16.11 штиль 0 н/о н/о +24.7 +16.0 58 +28 +28 душно 1008.3 967.4
00 17.11 ЮВ 2 н/о н/о +23.7 +16.2 63 +27 +27 жарко 1009.9 968.9
03 17.11 В 2 н/о н/о +23.9 +15.3 59 +27 +27 жарко 1013.0 971.9
06 17.11 ЮВ 3 н/о н/о +27.2 +12.0 39 +28 +28 жарко 1024.8 983.6 +23.0
09 17.11 СЗ 4 н/о н/о +31.7 +9.5 25 +31 +31 жарко 1030.4 989.5
12 17.11 СЗ 7 н/о н/о +32.3 +7.0 21 +31 +31 жарко 1014.9 974.7
15 17.11 СЗ 6 н/о н/о +26.7 +18.0 59 +31 +31 душно 999.9 959.6
18 17.11 СЗ 5 н/о н/о +25.2 +21.0 78 +32 +32 очень
душно
1005.5 964.9 +33.0
21 17.11 СЗ 5 н/о н/о +24.2 +21.0 82 +30 +30 очень
душно
1008.6 967.8
00 18.11 СЗ 4 н/о н/о +23.5 +19.6 79 +29 +29 душно 1010.6 969.5
03 18.11 СЗ 4 н/о н/о +23.8 +20.9 84 +30 +30 очень
душно
1012.8 971.8
06 18.11 С 4 н/о н/о +26.3 +20.1 69 +32 +32 очень
душно
1023.3 982.2 +23.0
09 18.11 СЗ 6 н/о н/о +29.2 +15.7 44 +32 +32 душно 1025.4 984.4
12 18.11 СЗ 9 н/о н/о +30.3 +8.9 26 +30 +30 жарко 1015.4 974.9
15 18.11 СЗ 4 н/о н/о +26.0 +12.7 44 +28 +28 жарко 1001.6 961.1
18 18.11 СЗ 4 н/о н/о +22.7 +18.3 76 +28 +28 душно 1002.2 961.4 +31.6
21 18.11 СЗ 2 н/о н/о +21.5 +17.5 78 +26 +26 душно 1006.0 964.9
00 19.11 СЗ 3 н/о н/о +20.4 +14.9 71 +23 +23 комфорт 1008.5 967.0
03 19.11 С 1 н/о н/о +19.2 +14.0 72 +22 +22 комфорт 1009.2 967.5
06 19.11 С 3 н/о н/о +23.0 +14.0 57 +26 +26 жарко 1025.8 984.0 +19.2
09 19.11 СЗ 4 н/о н/о +27.4 +12.6 40 +29 +29 жарко 1028.6 987.3
12 19.11 З 5 н/о н/о +29.0 +9.1 29 +29 +29 жарко 1018.6 977.8
15 19.11 СЗ 4 н/о н/о +25.9 +11.0 39 +27 +27 жарко 1005.0 964.4
18 19.11 СЗ 5 н/о н/о +22.1 +16.4 70 +26 +26 душно 1003.0 962.0 +29.4
21 19.11 СЗ 3 н/о н/о +21.0 +17.2 79 +25 +25 комфорт 1006.6 965.4
00 20.11 С 1 н/о н/о +19.2 +17.1 88 +22 +22 комфорт 1007.8 966.3
03 20.11 В 1 н/о н/о +17.9 +16.8 93 +19 +19 1022.9 981.1
06 20.11 З 2 н/о н/о +26.2 +9.9 36 +27 +27 жарко 1035.6 993.8 +17.3
09 20.11 СЗ 5 н/о н/о +28.1 +10.1 32 +28 +28 жарко 1029.9 988.6
12 20.11 СЗ 6 н/о н/о +29.2 +5.4 22 +28 +28 жарко 1016.3 975.6
15 20.11 СЗ 7 н/о н/о +25.9 +11.7 41 +27 +27 жарко 1005.0 964.4
18 20.11 СЗ 4 н/о н/о +22.6 +15.9 66 +27 +27 душно 1004.1 963.1 +29.7

 

Местоположение метеостанции Buraimi (Оман): широта 24.23 долгота 55.78 высота над уровнем моря 299 м.

В архиве по умолчанию представлена погода в Buraimi за последнюю неделю. Архивные данные за месяц целиком и за предыдущие месяцы, начиная с января 2011 года, Вы можете получить, выбрав интересующий диапазон дат из раскрывающегося списка и нажав кнопку "Ввод!".


*Определитесь, кто Вы:
робот инопланетянин человек

Внимание! Время в таблицах - всемирное. Для получения местного времени необходимо прибавить поправку, которая в Buraimi равна 4 ч.

Смотрите также архив погоды в соседних городах и на ближайших метеорологических станциях:

Погода в Al Ain Int Airport (ОАЭ) (19 км)
Погода в Qumayra (Оман) (54 км)
Погода в Sohar Majis (Оман) (90 км)
Погода в Dubai Al Maktoum Int Airport (ОАЭ) (97 км)
Погода в Fujairah (ОАЭ) (112 км)
Погода в Abu Dhabi (ОАЭ) (117 км)
Погода в Ibri (Оман) (117 км)
Погода в Dubai (ОАЭ) (122 км)
Погода в Sharjah (ОАЭ) (125 км)
Погода в Abu Dhabi Bateen Airport (ОАЭ) (136 км)

Пояснения к столбцам:

Ветер - указаны скорость ветра в м/с - средняя за 10 мин, порывы в срок и между сроками (в фигурных скобках) и направление, откуда дует ветер: С - северный, СВ - северо-восточный, В - восточный, ЮВ - юго-восточный, Ю - южный, ЮЗ - юго-западный, З - западный, СЗ - северо-западный.
Видимость - горизонтальная дальность видимости в метрах или километрах. При видимости от 1 до 10 км при отсутствии осадков обычно наблюдается дымка, при ухудшении видимости до 1 км и менее - туман. В сухую погоду видимость может ухудшаться дымом, пылью или мглою.
Явления - указаны атмосферные явления, наблюдавшиеся в срок или в последний час перед сроком; фигурными скобками обозначены явления, наблюдавшиеся между сроками (за 1-3 часа до срока); квадратными скобками обозначены град или гололедные отложения с указанием их диаметра в мм.
Облачность - указаны через наклонную черту общая и нижняя облачность в баллах и высота нижней границы облаков в метрах; квадратными скобками обозначены формы облаков: Ci - перистые, Cs - перисто-слоистые, Cc - перисто-кучевые, Ac - высококучевые, As - высокослоистые, Sc - слоисто-кучевые, Ns - слоисто-дождевые, Cu - кучевые, Cb - кучево-дождевые. Подробнее классификацию облаков см. в Атласе облаков (PDF).
T - Температура воздуха - температура, измеренная на высоте 2 м над землей.
Td - Температура точки росы - температура, при понижении до которой содержащийся в воздухе водяной пар достигнет насыщения.
f - Относительная влажность воздуха - влажноcть воздуха, измеренная на высоте 2 м над землей.
Te - Эффективная температура - температура, которую ощущает одетый по сезону человек в тени. Характеристика душности погоды. При расчете учитывается влияние влажности воздуха и скорости ветра на теплоощущения человека.
Tes - Эффективная температура на солнце - температура, которую ощущает человек, с поправкой на солнечный нагрев. Характеристика знойности погоды. Зависит от высоты солнца над горизонтом, облачности и скорости ветра. Ночью, в пасмурную погоду, а также при ветре 12 м/с и более поправка равна нулю.
P - Атмосферное давление - приведенное к уровню моря атмосферное давление.
Po - Атмосферное давление - измеренное на уровне метеостанции атмосферное давление.
Tmin - Минимальная температура - минимум температуры воздуха на высоте 2 м над землей.
Tmax - Максимальная температура - максимум температуры воздуха на высоте 2 м над землей.
R - Количество осадков - Количество выпавших осадков за период времени, мм. При наведении курсора мыши на число - период времени, за который выпало указанное количество осадков.
R24 - Количество осадков - Количество выпавших осадков за 24 часа, мм.
S - Снежный покров - Высота снежного покрова, см. При наведении курсора мыши на число - состояние снежного покрова и степень покрытия местности в баллах.